Hourly Data Report for September 25, 2018

ASHCROFT
BRITISH COLUMBIA
Current Station Operator: ECCC - MSC

50°42'30.005" N
121°16'53.001" W
327.00 m
1160515
71681
VAS

Download Data

Hourly Data (September 2018)
Hourly Data Report for September 25, 2018
TIME
LST
Temp Definition
°C
Dew Point Definition
°C
Rel Hum Definition
%
Precip. Amount Definition
mm

Wind Dir Definition
10's deg

Wind Spd Definition
km/h
Visibility Definition
km
Stn Press Definition
kPa
Hmdx Definition


Wind Chill Definition


Weather Definition


00:00 9.6 6.9 83 0.0 0 1   98.59     LegendNANA
01:00 9.3 7.2 87 0.0 18 2   98.64     LegendNANA
02:00 9.0 6.8 86 0.0   0   98.67     LegendNANA
03:00 8.1 6.6 91 0.0 13 1   98.66     LegendNANA
04:00 8.0 6.4 89 0.0 19 2   98.72     LegendNANA
05:00 7.5 6.0 91 0.0 4 3   98.74     LegendNANA
06:00 6.8 5.4 91 0.0 15 1   98.77     LegendNANA
07:00 6.9 5.6 91 0.0 19 2   98.83     LegendNANA
08:00 8.0 6.0 87 0.0 16 2   98.88     LegendNANA
09:00 11.8 6.8 71 0.0 13 1   98.84     LegendNANA
10:00 12.8 6.6 66 0.0 28 2   98.82     LegendNANA
11:00 14.5 7.2 62 0.0 30 2   98.75     LegendNANA
12:00 15.9 6.3 53 0.0 33 2   98.69     LegendNANA
13:00 17.7 5.3 44 0.0 30 3   98.61     LegendNANA
14:00 20.0 5.4 38 0.0 29 3   98.56     LegendNANA
15:00 21.1 3.7 32 0.0 28 3   98.48     LegendNANA
16:00 21.8 4.8 33 0.0 22 3   98.43     LegendNANA
17:00 20.3 5.3 37 0.0 22 3   98.38     LegendNANA
18:00 16.7 7.0 53 0.0 1 2   98.39     LegendNANA
19:00 14.9 7.0 59 0.0 3 2   98.42     LegendNANA
20:00 13.2 7.1 67 0.0 18 2   98.46     LegendNANA
21:00 12.4 6.9 69 0.0 6 1   98.47     LegendNANA
22:00 11.5 6.6 72 0.0 12 4   98.52     LegendNANA
23:00 10.4 6.6 77 0.0 18 2   98.57     LegendNANA

Notes on Data Quality.

Legend

  • E = Estimated
  • M = Missing
  • NA = Not Available*
  • [empty] = Indicates an unobserved value
Date modified: